Time,TemperatureF,DewpointF,PressureIn,WindDirection,WindDirectionDegrees,WindSpeedMPH,WindSpeedGustMPH,Humidity,HourlyPrecipIn,Conditions,Clouds,dailyrainin,SoftwareType,DateUTC
2013-05-09 00:02:00,40.0,28.0,-100.00,NE,35,1.0,1.0,63,0.00,,,0.00,,2013-05-09 08:02:00,
2013-05-09 00:11:00,40.0,28.0,-100.00,NE,35,1.0,1.0,63,0.00,,,0.00,,2013-05-09 08:11:00,
2013-05-09 00:21:00,38.0,28.0,-100.00,NE,40,1.0,1.0,66,0.00,,,0.00,,2013-05-09 08:21:00,
2013-05-09 00:31:00,38.0,28.0,-100.00,NE,40,1.0,1.0,66,0.00,,,0.00,,2013-05-09 08:31:00,
2013-05-09 00:41:00,38.0,28.0,-100.00,NE,40,1.0,1.0,66,0.00,,,0.00,,2013-05-09 08:41:00,
2013-05-09 00:51:00,37.0,28.0,-100.00,SW,230,1.0,1.0,68,0.00,,,0.00,,2013-05-09 08:51:00,
2013-05-09 01:02:00,37.0,28.0,-100.00,SW,230,1.0,1.0,68,0.00,,,0.00,,2013-05-09 09:02:00,
2013-05-09 01:11:00,37.0,28.0,-100.00,SW,230,1.0,1.0,68,0.00,,,0.00,,2013-05-09 09:11:00,
2013-05-09 01:21:00,36.0,29.0,-100.00,ENE,70,1.0,1.0,73,0.00,,,0.00,,2013-05-09 09:21:00,
2013-05-09 01:32:00,36.0,29.0,-100.00,ENE,70,1.0,1.0,73,0.00,,,0.00,,2013-05-09 09:32:00,
2013-05-09 01:42:00,36.0,29.0,-100.00,ENE,70,1.0,1.0,73,0.00,,,0.00,,2013-05-09 09:42:00,
2013-05-09 01:52:00,36.0,28.0,-100.00,SW,235,0.0,1.0,75,0.00,,,0.00,,2013-05-09 09:52:00,
2013-05-09 02:02:00,36.0,28.0,-100.00,SW,235,0.0,1.0,75,0.00,,,0.00,,2013-05-09 10:02:00,
2013-05-09 02:12:00,36.0,28.0,-100.00,SW,235,0.0,1.0,75,0.00,,,0.00,,2013-05-09 10:12:00,
2013-05-09 02:22:00,34.0,29.0,-100.00,NE,45,1.0,1.0,80,0.00,,,0.00,,2013-05-09 10:22:00,
2013-05-09 02:33:00,34.0,29.0,-100.00,NE,45,1.0,1.0,80,0.00,,,0.00,,2013-05-09 10:33:00,
2013-05-09 02:42:00,34.0,29.0,-100.00,NE,45,1.0,1.0,80,0.00,,,0.00,,2013-05-09 10:42:00,
2013-05-09 02:52:00,34.0,29.0,-100.00,NE,55,1.0,1.0,82,0.00,,,0.00,,2013-05-09 10:52:00,
2013-05-09 03:02:00,34.0,29.0,-100.00,NE,55,1.0,1.0,82,0.00,,,0.00,,2013-05-09 11:02:00,
2013-05-09 03:12:00,34.0,29.0,-100.00,NE,55,1.0,1.0,82,0.00,,,0.00,,2013-05-09 11:12:00,
2013-05-09 03:22:00,33.0,29.0,-100.00,NNW,330,0.0,1.0,84,0.00,,,0.00,,2013-05-09 11:22:00,
2013-05-09 03:32:00,33.0,29.0,-100.00,NNW,330,0.0,1.0,84,0.00,,,0.00,,2013-05-09 11:32:00,
2013-05-09 03:41:00,33.0,29.0,-100.00,NNW,330,0.0,1.0,84,0.00,,,0.00,,2013-05-09 11:41:00,
2013-05-09 03:51:00,32.0,28.0,-100.00,ENE,60,0.0,1.0,86,0.00,,,0.00,,2013-05-09 11:51:00,
2013-05-09 04:01:00,32.0,28.0,-100.00,ENE,60,0.0,1.0,86,0.00,,,0.00,,2013-05-09 12:01:00,
2013-05-09 04:11:00,32.0,28.0,-100.00,ENE,60,0.0,1.0,86,0.00,,,0.00,,2013-05-09 12:11:00,
2013-05-09 04:22:00,32.0,29.0,-100.00,NE,45,0.0,2.0,88,0.00,,,0.00,,2013-05-09 12:22:00,
2013-05-09 04:31:00,32.0,29.0,-100.00,NE,45,0.0,2.0,88,0.00,,,0.00,,2013-05-09 12:31:00,
2013-05-09 04:42:00,32.0,29.0,-100.00,NE,45,0.0,2.0,88,0.00,,,0.00,,2013-05-09 12:42:00,
2013-05-09 04:51:00,31.0,29.0,-100.00,NW,310,0.0,1.0,90,0.00,,,0.00,,2013-05-09 12:51:00,
2013-05-09 05:01:00,31.0,29.0,-100.00,NW,310,0.0,1.0,90,0.00,,,0.00,,2013-05-09 13:01:00,
2013-05-09 05:12:00,31.0,29.0,-100.00,NW,310,0.0,1.0,90,0.00,,,0.00,,2013-05-09 13:12:00,
2013-05-09 05:21:00,31.0,29.0,-100.00,NE,40,0.0,1.0,91,0.00,,,0.00,,2013-05-09 13:21:00,
2013-05-09 05:32:00,31.0,29.0,-100.00,NE,40,0.0,1.0,91,0.00,,,0.00,,2013-05-09 13:32:00,
2013-05-09 05:42:00,31.0,29.0,-100.00,NE,40,0.0,1.0,91,0.00,,,0.00,,2013-05-09 13:42:00,
2013-05-09 05:52:00,31.0,28.0,-100.00,SSW,195,0.0,0.0,91,0.00,,,0.00,,2013-05-09 13:52:00,
2013-05-09 06:01:00,31.0,28.0,-100.00,SSW,195,0.0,0.0,91,0.00,,,0.00,,2013-05-09 14:01:00,
2013-05-09 06:11:00,31.0,28.0,-100.00,SSW,195,0.0,0.0,91,0.00,,,0.00,,2013-05-09 14:11:00,
2013-05-09 06:21:00,31.0,29.0,-100.00,NE,45,0.0,2.0,92,0.00,,,0.00,,2013-05-09 14:21:00,
2013-05-09 06:32:00,31.0,29.0,-100.00,NE,45,0.0,2.0,92,0.00,,,0.00,,2013-05-09 14:32:00,
2013-05-09 06:41:00,31.0,29.0,-100.00,NE,45,0.0,2.0,92,0.00,,,0.00,,2013-05-09 14:41:00,
2013-05-09 06:52:00,32.0,30.0,-100.00,SSE,150,0.0,1.0,91,0.00,,,0.00,,2013-05-09 14:52:00,
2013-05-09 07:01:00,32.0,30.0,-100.00,SSE,150,0.0,1.0,91,0.00,,,0.00,,2013-05-09 15:01:00,
2013-05-09 07:11:00,32.0,30.0,-100.00,SSE,150,0.0,1.0,91,0.00,,,0.00,,2013-05-09 15:11:00,
2013-05-09 07:21:00,33.0,31.0,-100.00,NE,55,0.0,1.0,90,0.00,,,0.00,,2013-05-09 15:21:00,
2013-05-09 07:33:00,33.0,31.0,-100.00,NE,55,0.0,1.0,90,0.00,,,0.00,,2013-05-09 15:33:00,
2013-05-09 07:43:00,33.0,31.0,-100.00,NE,55,0.0,1.0,90,0.00,,,0.00,,2013-05-09 15:43:00,
2013-05-09 07:52:00,36.0,33.0,-100.00,NE,35,0.0,2.0,89,0.00,,,0.00,,2013-05-09 15:52:00,
2013-05-09 08:03:00,36.0,33.0,-100.00,NE,35,0.0,2.0,89,0.00,,,0.00,,2013-05-09 16:03:00,
2013-05-09 08:12:00,36.0,33.0,-100.00,NE,35,0.0,2.0,89,0.00,,,0.00,,2013-05-09 16:12:00,
2013-05-09 08:22:00,40.0,34.0,-100.00,SW,235,1.0,4.0,77,0.00,,,0.00,,2013-05-09 16:22:00,
2013-05-09 08:33:00,40.0,34.0,-100.00,SW,235,1.0,4.0,77,0.00,,,0.00,,2013-05-09 16:33:00,
2013-05-09 08:42:00,40.0,34.0,-100.00,SW,235,1.0,4.0,77,0.00,,,0.00,,2013-05-09 16:42:00,
2013-05-09 08:52:00,45.0,32.0,-100.00,South,190,0.0,1.0,61,0.00,,,0.00,,2013-05-09 16:52:00,
2013-05-09 09:02:00,45.0,32.0,-100.00,South,190,0.0,1.0,61,0.00,,,0.00,,2013-05-09 17:02:00,
2013-05-09 09:12:00,45.0,32.0,-100.00,South,190,0.0,1.0,61,0.00,,,0.00,,2013-05-09 17:12:00,
2013-05-09 09:21:00,47.0,30.0,-100.00,WSW,245,2.0,3.0,53,0.00,,,0.00,,2013-05-09 17:21:00,
2013-05-09 09:32:00,47.0,30.0,-100.00,WSW,245,2.0,3.0,53,0.00,,,0.00,,2013-05-09 17:32:00,
2013-05-09 09:42:00,47.0,30.0,-100.00,WSW,245,2.0,3.0,53,0.00,,,0.00,,2013-05-09 17:42:00,
2013-05-09 09:55:00,50.0,29.0,-100.00,WSW,245,1.0,3.0,45,0.00,,,0.00,,2013-05-09 17:55:00,
2013-05-09 10:01:00,50.0,29.0,-100.00,WSW,245,1.0,3.0,45,0.00,,,0.00,,2013-05-09 18:01:00,
2013-05-09 10:12:00,50.0,29.0,-100.00,WSW,245,1.0,3.0,45,0.00,,,0.00,,2013-05-09 18:12:00,
2013-05-09 10:21:00,53.0,29.0,-100.00,SW,235,2.0,3.0,40,0.00,,,0.00,,2013-05-09 18:21:00,
2013-05-09 10:31:00,53.0,29.0,-100.00,SW,235,2.0,3.0,40,0.00,,,0.00,,2013-05-09 18:31:00,
2013-05-09 10:42:00,53.0,29.0,-100.00,SW,235,2.0,3.0,40,0.00,,,0.00,,2013-05-09 18:42:00,
2013-05-09 10:52:00,54.0,29.0,-100.00,WSW,255,2.0,4.0,38,0.00,,,0.00,,2013-05-09 18:52:00,
2013-05-09 11:01:00,54.0,29.0,-100.00,WSW,255,2.0,4.0,38,0.00,,,0.00,,2013-05-09 19:01:00,
2013-05-09 11:11:00,54.0,29.0,-100.00,WSW,255,2.0,4.0,38,0.00,,,0.00,,2013-05-09 19:11:00,
2013-05-09 11:21:00,57.0,30.0,-100.00,SW,235,2.0,3.0,35,0.00,,,0.00,,2013-05-09 19:21:00,
2013-05-09 11:31:00,57.0,30.0,-100.00,SW,235,2.0,3.0,35,0.00,,,0.00,,2013-05-09 19:31:00,
2013-05-09 11:41:00,57.0,30.0,-100.00,SW,235,2.0,3.0,35,0.00,,,0.00,,2013-05-09 19:41:00,
2013-05-09 11:52:00,59.0,29.0,-100.00,NNE,30,2.0,7.0,32,0.00,,,0.00,,2013-05-09 19:52:00,
2013-05-09 12:01:00,59.0,29.0,-100.00,NNE,30,2.0,7.0,32,0.00,,,0.00,,2013-05-09 20:01:00,
2013-05-09 12:11:00,59.0,29.0,-100.00,NNE,30,2.0,7.0,32,0.00,,,0.00,,2013-05-09 20:11:00,
2013-05-09 12:21:00,62.0,30.0,-100.00,NW,305,1.0,4.0,30,0.00,,,0.00,,2013-05-09 20:21:00,
2013-05-09 12:32:00,62.0,30.0,-100.00,NW,305,1.0,4.0,30,0.00,,,0.00,,2013-05-09 20:32:00,
2013-05-09 12:42:00,62.0,30.0,-100.00,NW,305,1.0,4.0,30,0.00,,,0.00,,2013-05-09 20:42:00,
2013-05-09 12:52:00,61.0,28.0,-100.00,WSW,255,2.0,8.0,29,0.00,,,0.00,,2013-05-09 20:52:00,
2013-05-09 13:01:00,61.0,28.0,-100.00,WSW,255,2.0,8.0,29,0.00,,,0.00,,2013-05-09 21:01:00,
2013-05-09 13:11:00,61.0,28.0,-100.00,WSW,255,2.0,8.0,29,0.00,,,0.00,,2013-05-09 21:11:00,
2013-05-09 13:20:00,63.0,30.0,-100.00,South,185,6.0,9.0,28,0.00,,,0.00,,2013-05-09 21:20:00,
2013-05-09 13:22:00,63.0,30.0,-100.00,SW,220,1.0,7.0,29,0.00,,,0.00,,2013-05-09 21:22:00,
2013-05-09 13:32:00,63.0,30.0,-100.00,SW,220,1.0,7.0,29,0.00,,,0.00,,2013-05-09 21:32:00,
2013-05-09 13:43:00,63.0,30.0,-100.00,SW,220,1.0,7.0,29,0.00,,,0.00,,2013-05-09 21:43:00,
2013-05-09 13:52:00,63.0,30.0,-100.00,South,185,6.0,9.0,28,0.00,,,0.00,,2013-05-09 21:52:00,
2013-05-09 14:03:00,63.0,30.0,-100.00,South,185,6.0,9.0,28,0.00,,,0.00,,2013-05-09 22:03:00,
2013-05-09 14:12:00,63.0,30.0,-100.00,South,185,6.0,9.0,28,0.00,,,0.00,,2013-05-09 22:12:00,
2013-05-09 14:52:00,63.0,29.0,-100.00,SSW,210,7.0,11.0,28,0.00,,,0.00,,2013-05-09 22:52:00,
2013-05-09 15:02:00,63.0,29.0,-100.00,SSW,210,7.0,11.0,28,0.00,,,0.00,,2013-05-09 23:02:00,
2013-05-09 15:11:00,63.0,29.0,-100.00,SSW,210,7.0,11.0,28,0.00,,,0.00,,2013-05-09 23:11:00,
2013-05-09 15:21:00,62.0,29.0,-100.00,West,270,6.0,14.0,28,0.00,,,0.00,,2013-05-09 23:21:00,
2013-05-09 15:32:00,62.0,29.0,-100.00,West,270,6.0,14.0,28,0.00,,,0.00,,2013-05-09 23:32:00,
2013-05-09 15:42:00,62.0,29.0,-100.00,West,270,6.0,14.0,28,0.00,,,0.00,,2013-05-09 23:42:00,
2013-05-09 15:52:00,62.0,29.0,-100.00,SW,230,6.0,12.0,28,0.00,,,0.00,,2013-05-09 23:52:00,
2013-05-09 16:01:00,62.0,29.0,-100.00,SW,230,6.0,12.0,28,0.00,,,0.00,,2013-05-10 00:01:00,
2013-05-09 16:11:00,62.0,29.0,-100.00,SW,230,6.0,12.0,28,0.00,,,0.00,,2013-05-10 00:11:00,
2013-05-09 16:21:00,63.0,29.0,-100.00,West,260,6.0,11.0,28,0.00,,,0.00,,2013-05-10 00:21:00,
2013-05-09 16:32:00,63.0,29.0,-100.00,West,260,6.0,11.0,28,0.00,,,0.00,,2013-05-10 00:32:00,
2013-05-09 16:42:00,63.0,29.0,-100.00,West,260,6.0,11.0,28,0.00,,,0.00,,2013-05-10 00:42:00,
2013-05-09 16:51:00,64.0,29.0,-100.00,West,265,7.0,11.0,27,0.00,,,0.00,,2013-05-10 00:51:00,
2013-05-09 17:01:00,64.0,29.0,-100.00,West,265,7.0,11.0,27,0.00,,,0.00,,2013-05-10 01:01:00,
2013-05-09 17:11:00,64.0,29.0,-100.00,West,265,7.0,11.0,27,0.00,,,0.00,,2013-05-10 01:11:00,
2013-05-09 17:21:00,63.0,29.0,-100.00,SW,235,8.0,12.0,27,0.00,,,0.00,,2013-05-10 01:21:00,
2013-05-09 17:31:00,63.0,29.0,-100.00,SW,235,8.0,12.0,27,0.00,,,0.00,,2013-05-10 01:31:00,
2013-05-09 17:41:00,63.0,29.0,-100.00,SW,235,8.0,12.0,27,0.00,,,0.00,,2013-05-10 01:41:00,
2013-05-09 17:52:00,62.0,28.0,-100.00,SW,215,7.0,12.0,27,0.00,,,0.00,,2013-05-10 01:52:00,
2013-05-09 18:01:00,62.0,28.0,-100.00,SW,215,7.0,12.0,27,0.00,,,0.00,,2013-05-10 02:01:00,
2013-05-09 18:11:00,62.0,28.0,-100.00,SW,215,7.0,12.0,27,0.00,,,0.00,,2013-05-10 02:11:00,
2013-05-09 18:21:00,62.0,29.0,-100.00,WSW,240,6.0,11.0,28,0.00,,,0.00,,2013-05-10 02:21:00,
2013-05-09 18:31:00,62.0,29.0,-100.00,WSW,240,6.0,11.0,28,0.00,,,0.00,,2013-05-10 02:31:00,
2013-05-09 18:42:00,62.0,29.0,-100.00,WSW,240,6.0,11.0,28,0.00,,,0.00,,2013-05-10 02:42:00,
2013-05-09 18:52:00,62.0,29.0,-100.00,West,265,6.0,9.0,29,0.00,,,0.00,,2013-05-10 02:52:00,
2013-05-09 19:01:00,62.0,29.0,-100.00,West,265,6.0,9.0,29,0.00,,,0.00,,2013-05-10 03:01:00,
2013-05-09 19:11:00,62.0,29.0,-100.00,West,265,6.0,9.0,29,0.00,,,0.00,,2013-05-10 03:11:00,
2013-05-09 19:21:00,60.0,28.0,-100.00,West,265,5.0,11.0,29,0.00,,,0.00,,2013-05-10 03:21:00,
2013-05-09 19:32:00,60.0,28.0,-100.00,West,265,5.0,11.0,29,0.00,,,0.00,,2013-05-10 03:32:00,
2013-05-09 19:43:00,60.0,28.0,-100.00,West,265,5.0,11.0,29,0.00,,,0.00,,2013-05-10 03:43:00,
2013-05-09 19:52:00,60.0,29.0,-100.00,South,185,3.0,5.0,30,0.00,,,0.00,,2013-05-10 03:52:00,
2013-05-09 20:03:00,60.0,29.0,-100.00,South,185,3.0,5.0,30,0.00,,,0.00,,2013-05-10 04:03:00,
2013-05-09 20:12:00,60.0,29.0,-100.00,South,185,3.0,5.0,30,0.00,,,0.00,,2013-05-10 04:12:00,
2013-05-09 20:22:00,59.0,28.0,-100.00,WSW,240,4.0,7.0,31,0.00,,,0.00,,2013-05-10 04:22:00,
2013-05-09 20:33:00,59.0,28.0,-100.00,WSW,240,4.0,7.0,31,0.00,,,0.00,,2013-05-10 04:33:00,
2013-05-09 20:42:00,59.0,28.0,-100.00,WSW,240,4.0,7.0,31,0.00,,,0.00,,2013-05-10 04:42:00,
2013-05-09 20:52:00,57.0,28.0,-100.00,NNW,345,1.0,4.0,33,0.00,,,0.00,,2013-05-10 04:52:00,
2013-05-09 21:02:00,57.0,28.0,-100.00,NNW,345,1.0,4.0,33,0.00,,,0.00,,2013-05-10 05:02:00,
2013-05-09 21:12:00,57.0,28.0,-100.00,NNW,345,1.0,4.0,33,0.00,,,0.00,,2013-05-10 05:12:00,
2013-05-09 21:21:00,54.0,29.0,-100.00,SSE,155,0.0,2.0,37,0.00,,,0.00,,2013-05-10 05:21:00,
2013-05-09 21:32:00,54.0,29.0,-100.00,SSE,155,0.0,2.0,37,0.00,,,0.00,,2013-05-10 05:32:00,
2013-05-09 21:42:00,54.0,29.0,-100.00,SSE,155,0.0,2.0,37,0.00,,,0.00,,2013-05-10 05:42:00,
2013-05-09 21:52:00,52.0,29.0,-100.00,ENE,70,1.0,3.0,42,0.00,,,0.00,,2013-05-10 05:52:00,
2013-05-09 22:01:00,52.0,29.0,-100.00,ENE,70,1.0,3.0,42,0.00,,,0.00,,2013-05-10 06:01:00,
2013-05-09 22:12:00,52.0,29.0,-100.00,ENE,70,1.0,3.0,42,0.00,,,0.00,,2013-05-10 06:12:00,
2013-05-09 22:21:00,50.0,29.0,-100.00,East,80,1.0,4.0,45,0.00,,,0.00,,2013-05-10 06:21:00,
2013-05-09 22:32:00,50.0,29.0,-100.00,East,80,1.0,4.0,45,0.00,,,0.00,,2013-05-10 06:32:00,
2013-05-09 22:41:00,50.0,29.0,-100.00,East,80,1.0,4.0,45,0.00,,,0.00,,2013-05-10 06:41:00,
2013-05-09 22:51:00,47.0,29.0,-100.00,NE,35,2.0,2.0,50,0.00,,,0.00,,2013-05-10 06:51:00,
2013-05-09 23:01:00,47.0,29.0,-100.00,NE,35,2.0,2.0,50,0.00,,,0.00,,2013-05-10 07:01:00,
2013-05-09 23:11:00,47.0,29.0,-100.00,NE,35,2.0,2.0,50,0.00,,,0.00,,2013-05-10 07:11:00,
2013-05-09 23:22:00,45.0,30.0,-100.00,NE,45,1.0,1.0,56,0.00,,,0.00,,2013-05-10 07:22:00,
2013-05-09 23:31:00,45.0,30.0,-100.00,NE,45,1.0,1.0,56,0.00,,,0.00,,2013-05-10 07:31:00,
2013-05-09 23:42:00,45.0,30.0,-100.00,NE,45,1.0,1.0,56,0.00,,,0.00,,2013-05-10 07:42:00,
2013-05-09 23:52:00,43.0,31.0,-100.00,NE,55,0.0,1.0,62,0.00,,,0.00,,2013-05-10 07:52:00,